Weather in Ninove

Belgium     50°50′05″N   4°01′23″E
temp.,
°C
wind,
m/s
gust,
m/s
humid.,
%
clouds,
%
prec.,
mm/h
press.,
hPa
HPBL,
m
22 october, fri
fri2223:00+6wsw378343 0.0 1017124
02:00+5sw49847 0.0 1018169
05:00+5sw612805 0.0 1017258
08:00+5sw513854 0.0 1018305
11:00+10wsw714745 0.0 10191194
14:00+11w71162100 0.0 10201588
17:00+12w61065100 0.1 10201054
20:00+10w4979100 0.2 1022350
23 october, sat
sat2323:00+9w358597 0.1 1024134
02:00+9w118799 0.1 102515
05:00+8ssw229098 0.0 102524
08:00+7ssw239121 0.0 102637
11:00+10ssw347926 0.0 1027240
14:00+14sw34609 0.0 1027997
17:00+14sw246091 0.0 1026282
20:00+11s35677 0.0 102792
24 october, sun
sun2423:00+7s35785 0.0 102764
02:00+6sse368124 0.0 1026101
05:00+6sse34885 0.0 102559
08:00+5sse36875 0.0 102486
11:00+9s48670 0.0 1024311
14:00+14ssw46565 0.0 1022721
17:00+13s4763100 0.0 1021620
20:00+8s368299 0.0 102195
25 october, mon
mon2523:00+6s488529 0.0 1021118
02:00+5s478393 0.0 1020115
05:00+5s4108349 0.0 1019161
08:00+5s41178100 0.0 1019220
11:00+8ssw61273100 0.1 1019360
14:00+11ssw688149 0.1 1019395
17:00+13ssw58835 0.0 1019475
20:00+10ssw4893100 0.1 1020140
26 october, tue
tue2623:00+9sw479479 0.1 1021134
02:00+8sw469541 0.1 1022110
05:00+8ssw49967 0.0 1021159
08:00+7ssw4896100 0.0 1022154
11:00+11sw5888100 0.0 1023304
14:00+11ssw51087100 0.1 1023405
17:00+11ssw51183100 0.0 1022403
20:00+11ssw5108398 0.1 1023308